EW0531 Weather Reports


Display with metric or nautical units.
time (UTC)temp
F
wind
direction
speed
MPH
gust
MPH
rain 1hr
in
rain 24hr
in
rain mn
in
humidity
%
barometer
mb
20260905205536 60 0 0.0 2.0 0.00 0.00 0.00 76 1025.5
20260905205037 60 222 0.0 1.0 0.00 0.00 0.00 75 1025.6
20260905204556 61 0 0.0 2.0 0.00 0.00 0.00 75 1025.5
20260905204036 61 0 0.0 2.0 0.00 0.00 0.00 75 1025.5
20260905203536 61 0 1.0 2.0 0.00 0.00 0.00 74 1025.4
20260905203101 61 0 0.0 2.0 0.00 0.00 0.00 74 1025.5
20260905202537 61 222 0.0 2.0 0.00 0.00 0.00 74 1025.6
20260905202037 62 0 0.0 2.0 0.00 0.00 0.00 74 1025.8
20260905201609 62 0 0.0 2.0 0.00 0.00 0.00 73 1025.7
20260905201040 62 0 0.0 3.0 0.00 0.00 0.00 73 1025.7
20260905200536 62 0 0.0 3.0 0.00 0.00 0.00 73 1025.7
20260905200100 62 222 1.0 3.0 0.00 0.00 0.00 73 1025.8
20260905195537 62 222 1.0 4.0 0.00 0.00 0.00 73 1025.9
20260905195036 62 222 1.0 4.0 0.00 0.00 0.00 73 1025.8
20260905194601 63 222 2.0 3.0 0.00 0.00 0.00 72 1025.7
20260905194037 63 222 1.0 4.0 0.00 0.00 0.00 72 1025.8
20260905193536 63 222 2.0 4.0 0.00 0.00 0.00 72 1025.7
20260905193056 63 209 1.0 3.0 0.00 0.00 0.00 71 1025.7
20260905192537 63 275 1.0 4.0 0.00 0.00 0.00 71 1025.5
20260905192037 63 193 2.0 4.0 0.00 0.00 0.00 71 1025.5
20260905191557 63 199 2.0 4.0 0.00 0.00 0.00 70 1025.6
20260905191037 63 215 2.0 4.0 0.00 0.00 0.00 70 1025.5
20260905190537 64 221 2.0 4.0 0.00 0.00 0.00 69 1025.4
20260905190120 64 224 1.0 5.0 0.00 0.00 0.00 69 1025.3
20260905185539 64 232 2.0 5.0 0.00 0.00 0.00 69 1025.3
20260905185036 64 238 2.0 6.0 0.00 0.00 0.00 69 1025.3
20260905184622 64 227 3.0 6.0 0.00 0.00 0.00 68 1025.3
20260905184036 65 207 3.0 7.0 0.00 0.00 0.00 68 1025.3
20260905183539 65 206 3.0 7.0 0.00 0.00 0.00 68 1025.2
20260905183059 65 261 2.0 7.0 0.00 0.00 0.00 68 1025.1
20260905182537 65 229 3.0 9.0 0.00 0.00 0.00 68 1025.1
20260905182037 65 252 5.0 9.0 0.00 0.00 0.00 68 1025.2
20260905181602 66 198 3.0 6.0 0.00 0.00 0.00 67 1025.3
20260905181036 66 205 2.0 9.0 0.00 0.00 0.00 66 1025.2
20260905180537 66 207 2.0 9.0 0.00 0.00 0.00 65 1025.1
20260905180058 66 257 4.0 9.0 0.00 0.00 0.00 64 1025.3
20260905175537 66 240 5.0 9.0 0.00 0.00 0.00 65 1025.3
20260905175036 67 255 4.0 9.0 0.00 0.00 0.00 64 1025.3
20260905174602 67 261 4.0 10.0 0.00 0.00 0.00 64 1025.3
20260905174037 67 220 4.0 10.0 0.00 0.00 0.00 64 1025.3
20260905173537 67 211 5.0 10.0 0.00 0.00 0.00 64 1025.3
20260905173059 67 205 5.0 9.0 0.00 0.00 0.00 63 1025.2
20260905172537 67 235 3.0 9.0 0.00 0.00 0.00 63 1025.1
20260905172037 67 225 3.0 9.0 0.00 0.00 0.00 63 1025.1
20260905171556 68 202 6.0 9.0 0.00 0.00 0.00 62 1025.1
20260905171036 68 219 3.0 10.0 0.00 0.00 0.00 62 1025.1
20260905170538 68 245 4.0 10.0 0.00 0.00 0.00 62 1025.1
20260905170057 68 239 4.0 10.0 0.00 0.00 0.00 61 1025.2
20260905165537 68 215 6.0 11.0 0.00 0.00 0.00 61 1025.2
20260905165036 68 209 6.0 11.0 0.00 0.00 0.00 61 1025.2
20260905164602 69 201 6.0 12.0 0.00 0.00 0.00 61 1025.1
20260905164037 69 223 7.0 12.0 0.00 0.00 0.00 60 1025.2
20260905163537 69 215 5.0 11.0 0.00 0.00 0.00 59 1025.1
20260905163102 70 222 5.0 10.0 0.00 0.00 0.00 59 1025.1
20260905162538 70 224 5.0 14.0 0.00 0.00 0.00 59 1025.1
20260905162036 69 265 4.0 14.0 0.00 0.00 0.00 59 1025.0
20260905161556 70 191 6.0 13.0 0.00 0.00 0.00 59 1025.1
20260905161036 70 243 4.0 10.0 0.00 0.00 0.00 58 1025.1
20260905160536 70 231 4.0 10.0 0.00 0.00 0.00 58 1025.1
20260905160105 70 214 5.0 11.0 0.00 0.00 0.00 57 1025.1
20260905155537 70 171 5.0 11.0 0.00 0.00 0.00 57 1025.2
20260905155036 71 215 6.0 11.0 0.00 0.00 0.00 56 1025.2
20260905154601 71 247 4.0 9.0 0.00 0.00 0.00 58 1025.1
20260905154037 70 263 5.0 10.0 0.00 0.00 0.00 57 1025.0
20260905153536 70 206 5.0 11.0 0.00 0.00 0.00 57 1025.1
20260905153057 70 205 5.0 12.0 0.00 0.00 0.00 58 1025.1
20260905152537 70 204 7.0 12.0 0.00 0.00 0.00 57 1025.2
20260905152036 70 218 6.0 12.0 0.00 0.00 0.00 57 1025.2
20260905151606 70 200 6.0 11.0 0.00 0.00 0.00 57 1025.1
20260905151037 70 230 5.0 12.0 0.00 0.00 0.00 57 1025.2
20260905150539 70 207 6.0 13.0 0.00 0.00 0.00 58 1025.2
20260905150101 70 208 6.0 13.0 0.00 0.00 0.00 57 1025.2
20260905145537 70 191 4.0 12.0 0.00 0.00 0.00 58 1025.3
20260905145037 71 220 4.0 13.0 0.00 0.00 0.00 58 1025.3
20260905144557 71 217 6.0 13.0 0.00 0.00 0.00 56 1025.2
20260905144036 71 238 5.0 13.0 0.00 0.00 0.00 57 1025.2
20260905143536 71 218 4.0 10.0 0.00 0.00 0.00 55 1025.3
20260905143107 71 223 4.0 10.0 0.00 0.00 0.00 56 1025.3
20260905142537 71 215 2.0 11.0 0.00 0.00 0.00 57 1025.4
20260905142037 70 204 5.0 11.0 0.00 0.00 0.00 58 1025.5
20260905141630 70 202 5.0 14.0 0.00 0.00 0.00 56 1025.4
20260905141037 71 227 7.0 14.0 0.00 0.00 0.00 56 1025.3
20260905140537 71 229 5.0 10.0 0.00 0.00 0.00 56 1025.2
20260905135537 70 333 2.0 8.0 0.00 0.00 0.00 54 1025.3
20260905135036 70 298 3.0 8.0 0.00 0.00 0.00 54 1025.3
20260905134556 71 252 3.0 9.0 0.00 0.00 0.00 54 1025.4
20260905134037 70 278 3.0 9.0 0.00 0.00 0.00 55 1025.3
20260905133536 70 335 3.0 9.0 0.00 0.00 0.00 55 1025.3
20260905133053 70 231 5.0 9.0 0.00 0.00 0.00 54 1025.3
20260905132536 70 310 4.0 9.0 0.00 0.00 0.00 54 1025.5
20260905132037 70 44 3.0 9.0 0.00 0.00 0.00 55 1025.5
20260905131631 71 355 3.0 9.0 0.00 0.00 0.00 54 1025.4
20260905131039 71 315 3.0 9.0 0.00 0.00 0.00 53 1025.4
20260905130537 71 298 2.0 10.0 0.00 0.00 0.00 53 1025.3
20260905130114 71 342 3.0 10.0 0.00 0.00 0.00 53 1025.3
20260905125537 71 277 5.0 10.0 0.00 0.00 0.00 53 1025.4
20260905125037 71 332 3.0 9.0 0.00 0.00 0.00 53 1025.3
20260905124557 71 313 3.0 11.0 0.00 0.00 0.00 53 1025.4
20260905124037 71 314 4.0 12.0 0.00 0.00 0.00 54 1025.3
20260905123536 71 236 6.0 12.0 0.00 0.00 0.00 52 1025.3
20260905123102 71 229 5.0 9.0 0.00 0.00 0.00 53 1025.2
20260905122537 70 302 3.0 10.0 0.00 0.00 0.00 54 1025.2
20260905122038 69 244 3.0 13.0 0.00 0.00 0.00 55 1025.2
20260905121557 69 321 8.0 13.0 0.00 0.00 0.00 55 1025.2
20260905121037 70 336 4.0 11.0 0.00 0.00 0.00 54 1025.1
20260905120537 70 0 1.0 8.0 0.00 0.00 0.00 54 1025.2
20260905120058 69 222 3.0 8.0 0.00 0.00 0.00 55 1025.2
20260905115536 69 304 2.0 9.0 0.00 0.00 0.00 55 1025.2
20260905115036 69 238 4.0 10.0 0.00 0.00 0.00 55 1025.2
20260905114603 68 279 3.0 10.0 0.00 0.00 0.00 57 1025.2
20260905114037 68 300 2.0 9.0 0.00 0.00 0.00 57 1025.2
20260905113537 67 306 5.0 9.0 0.00 0.00 0.00 56 1025.2
20260905113101 68 309 3.0 13.0 0.00 0.00 0.00 56 1025.2
20260905112537 68 277 4.0 13.0 0.00 0.00 0.00 56 1025.3
20260905112039 68 309 5.0 15.0 0.00 0.00 0.00 57 1025.3
20260905111606 67 316 3.0 15.0 0.00 0.00 0.00 58 1025.3
20260905111037 67 319 7.0 15.0 0.00 0.00 0.00 58 1025.4
20260905110536 67 336 3.0 15.0 0.00 0.00 0.00 58 1025.3
20260905110105 66 317 6.0 15.0 0.00 0.00 0.00 57 1025.3
20260905105536 67 308 8.0 15.0 0.00 0.00 0.00 57 1025.3
20260905105035 67 337 3.0 9.0 0.00 0.00 0.00 58 1025.2
20260905104600 66 0 4.0 11.0 0.00 0.00 0.00 58 1025.2
20260905104039 67 317 6.0 11.0 0.00 0.00 0.00 58 1025.3
20260905103537 67 329 6.0 11.0 0.00 0.00 0.00 58 1025.3
20260905103104 67 13 3.0 12.0 0.00 0.00 0.00 58 1025.3
20260905102536 66 282 3.0 12.0 0.00 0.00 0.00 59 1025.4
20260905102036 66 360 5.0 12.0 0.00 0.00 0.00 59 1025.5
20260905101618 66 5 5.0 10.0 0.00 0.00 0.00 59 1025.5
20260905101038 66 286 4.0 10.0 0.00 0.00 0.00 60 1025.5
20260905100536 66 250 5.0 10.0 0.00 0.00 0.00 60 1025.4
20260905100107 66 302 5.0 10.0 0.00 0.00 0.00 59 1025.3
20260905095537 66 0 3.0 11.0 0.00 0.00 0.00 60 1025.4
20260905095033 66 301 4.0 11.0 0.00 0.00 0.00 60 1025.4
20260905094558 66 317 2.0 9.0 0.00 0.00 0.00 62 1025.3
20260905094040 65 337 3.0 10.0 0.00 0.00 0.00 62 1025.1
20260905093537 65 305 5.0 10.0 0.00 0.00 0.00 62 1025.1
20260905093101 65 296 3.0 9.0 0.00 0.00 0.00 61 1025.1
20260905092537 64 238 4.0 11.0 0.00 0.00 0.00 61 1025.2
20260905092038 64 287 4.0 11.0 0.00 0.00 0.00 61 1025.2
20260905091609 64 326 4.0 10.0 0.00 0.00 0.00 62 1025.2
20260905091036 64 269 3.0 11.0 0.00 0.00 0.00 62 1025.1
20260905090536 64 15 4.0 12.0 0.00 0.00 0.00 62 1025.1
20260905090104 64 309 4.0 12.0 0.00 0.00 0.00 64 1025.1
20260905085535 64 352 3.0 9.0 0.00 0.00 0.00 64 1025.0
20260905085036 64 327 3.0 7.0 0.00 0.00 0.00 65 1024.9
20260905084616 64 316 2.0 9.0 0.00 0.00 0.00 67 1024.8
20260905084035 63 345 4.0 9.0 0.00 0.00 0.00 68 1024.8
20260905083537 63 336 3.0 8.0 0.00 0.00 0.00 69 1024.8
20260905083056 63 303 2.0 7.0 0.00 0.00 0.00 71 1024.8
20260905082536 62 0 1.0 7.0 0.00 0.00 0.00 72 1024.7
20260905082037 62 296 2.0 4.0 0.00 0.00 0.00 74 1024.7
20260905081557 62 232 0.0 3.0 0.00 0.00 0.00 77 1024.6
20260905081038 62 0 0.0 3.0 0.00 0.00 0.00 78 1024.5
20260905080537 61 0 1.0 4.0 0.00 0.00 0.00 78 1024.5
20260905080058 61 232 1.0 4.0 0.00 0.00 0.00 79 1024.5
20260905075539 61 236 1.0 3.0 0.00 0.03 0.00 79 1024.4
20260905075036 60 0 1.0 4.0 0.00 0.03 0.00 81 1024.4
20260905074559 60 264 1.0 4.0 0.00 0.03 0.00 81 1024.4
20260905074036 60 0 0.0 3.0 0.00 0.03 0.00 83 1024.3
20260905073536 59 0 1.0 3.0 0.00 0.03 0.00 83 1024.3
20260905073102 58 0 0.0 2.0 0.00 0.03 0.00 84 1024.3
20260905072536 58 0 0.0 2.0 0.00 0.03 0.00 84 1024.3
20260905072037 58 0 0.0 2.0 0.00 0.03 0.00 84 1024.3
20260905071601 58 0 0.0 2.0 0.00 0.03 0.00 84 1024.3
20260905071036 57 0 0.0 1.0 0.00 0.03 0.00 85 1024.3
20260905070537 57 0 0.0 1.0 0.00 0.03 0.00 85 1024.2
20260905070110 57 0 0.0 0.0 0.00 0.03 0.00 85 1024.1
20260905065540 57 0 0.0 0.0 0.00 0.03 0.00 85 1024.0
20260905065036 56 0 0.0 0.0 0.00 0.03 0.00 86 1024.0
20260905064559 56 0 0.0 0.0 0.00 0.03 0.00 86 1023.9
20260905064037 56 0 0.0 0.0 0.00 0.03 0.00 86 1023.9
20260905063536 56 0 0.0 0.0 0.00 0.03 0.00 86 1023.9
20260905063102 56 0 0.0 0.0 0.00 0.03 0.00 86 1023.9
20260905062536 55 0 0.0 0.0 0.00 0.03 0.00 87 1023.9
20260905062034 55 0 0.0 0.0 0.00 0.03 0.00 87 1023.8
20260905061617 55 0 0.0 0.0 0.00 0.03 0.00 87 1023.9
20260905061036 55 0 0.0 0.0 0.00 0.03 0.00 87 1023.8
20260905060536 55 0 0.0 0.0 0.00 0.03 0.00 87 1023.8
20260905060057 55 0 0.0 0.0 0.00 0.03 0.00 87 1023.8
20260905055538 54 0 0.0 0.0 0.00 0.03 0.00 87 1023.7
20260905055037 54 0 0.0 0.0 0.00 0.03 0.00 87 1023.7
20260905054554 54 0 0.0 0.0 0.00 0.03 0.00 87 1023.6
20260905054036 54 0 0.0 0.0 0.00 0.03 0.00 87 1023.7
20260905053539 54 0 0.0 0.0 0.00 0.03 0.00 88 1023.5
20260905053105 54 0 0.0 0.0 0.00 0.03 0.00 88 1023.5
20260905052537 54 0 0.0 0.0 0.00 0.03 0.00 88 1023.5
20260905052037 54 0 0.0 0.0 0.00 0.03 0.00 88 1023.3
20260905051600 54 0 0.0 0.0 0.00 0.03 0.00 88 1023.3
20260905051037 54 0 0.0 0.0 0.00 0.03 0.00 87 1023.3
20260905050540 54 0 0.0 0.0 0.00 0.03 0.00 87 1023.1
20260905050057 54 0 0.0 0.0 0.00 0.03 0.00 88 1023.1
20260905045536 54 0 0.0 0.0 0.00 0.03 0.00 87 1023.1
20260905045039 54 0 0.0 0.0 0.00 0.03 0.00 87 1023.1
20260905044557 54 0 0.0 0.0 0.00 0.03 0.00 87 1023.1
20260905044039 54 0 0.0 0.0 0.00 0.03 0.00 87 1023.0
20260905043536 53 0 0.0 0.0 0.00 0.03 0.00 88 1023.1
20260905043106 53 0 0.0 0.0 0.00 0.03 0.00 87 1023.1
20260905042536 53 0 0.0 0.0 0.00 0.03 0.00 87 1023.0
20260905042037 53 0 0.0 0.0 0.00 0.03 0.00 87 1022.9
20260905041558 53 0 0.0 0.0 0.00 0.03 0.00 87 1022.8
20260905041036 53 0 0.0 0.0 0.00 0.03 0.00 87 1022.8
20260905040536 53 0 0.0 0.0 0.00 0.03 0.00 87 1022.8
20260905040100 53 0 0.0 0.0 0.00 0.03 0.00 86 1022.6
20260905035536 53 0 0.0 0.0 0.00 0.03 0.00 86 1022.7
20260905035036 53 0 0.0 0.0 0.00 0.03 0.00 86 1022.6
20260905034603 53 0 0.0 0.0 0.00 0.03 0.00 86 1022.6
20260905034039 54 0 0.0 0.0 0.00 0.03 0.00 86 1022.4
20260905033537 54 0 0.0 0.0 0.00 0.03 0.00 86 1022.5
20260905033104 54 0 0.0 0.0 0.00 0.03 0.00 86 1022.5
20260905032537 54 0 0.0 0.0 0.00 0.03 0.00 85 1022.5
20260905032037 54 0 0.0 0.0 0.00 0.03 0.00 85 1022.5
20260905031604 54 0 0.0 2.0 0.00 0.03 0.00 85 1022.4
20260905031036 54 0 0.0 3.0 0.00 0.03 0.00 85 1022.5
20260905030536 54 0 0.0 3.0 0.00 0.03 0.00 85 1022.4
20260905030107 54 0 0.0 0.0 0.00 0.03 0.00 85 1022.3
20260905025536 54 0 0.0 0.0 0.00 0.04 0.00 85 1022.3
20260905025033 54 0 0.0 0.0 0.00 0.04 0.00 84 1022.3
20260905024632 54 0 0.0 1.0 0.00 0.04 0.00 84 1022.2
20260905024040 55 0 0.0 1.0 0.00 0.04 0.00 84 1022.1
20260905023541 55 0 0.0 1.0 0.00 0.04 0.00 84 1022.1
20260905023100 55 0 0.0 4.0 0.00 0.04 0.00 85 1022.0
20260905022536 55 0 0.0 4.0 0.00 0.04 0.00 85 1021.8
20260905022038 55 263 0.0 4.0 0.00 0.04 0.00 85 1021.8
20260905021556 55 0 1.0 4.0 0.00 0.04 0.00 85 1021.8
20260905021036 55 277 0.0 6.0 0.00 0.04 0.00 85 1021.8
20260905020536 54 262 1.0 6.0 0.00 0.04 0.00 86 1021.7
20260905015538 54 232 0.0 3.0 0.00 0.04 0.00 86 1021.7
20260905015037 53 0 0.0 3.0 0.00 0.04 0.00 86 1021.6
20260905014559 53 232 0.0 3.0 0.00 0.04 0.00 86 1021.6
20260905014037 53 0 0.0 2.0 0.00 0.04 0.00 86 1021.6
20260905013537 53 0 0.0 0.0 0.00 0.04 0.00 86 1021.7
20260905013055 53 0 0.0 0.0 0.00 0.04 0.00 85 1021.7
20260905012536 53 0 0.0 0.0 0.00 0.04 0.00 85 1021.7
20260905012036 53 0 0.0 0.0 0.00 0.04 0.00 85 1021.6
20260905011603 53 0 0.0 0.0 0.00 0.04 0.00 85 1021.6
20260905011039 53 0 0.0 0.0 0.00 0.04 0.00 85 1021.5
20260905010537 53 0 0.0 0.0 0.00 0.04 0.00 84 1021.5
20260905010101 53 0 0.0 0.0 0.00 0.04 0.00 84 1021.6
20260905005536 53 0 0.0 0.0 0.00 0.04 0.00 84 1021.6
20260905005037 53 0 0.0 0.0 0.00 0.04 0.00 84 1021.7
20260905004602 54 0 0.0 0.0 0.00 0.04 0.00 83 1021.6
20260905004036 54 0 0.0 0.0 0.00 0.04 0.00 83 1021.7
20260905003537 54 0 0.0 0.0 0.00 0.04 0.00 83 1021.6
20260905003105 54 0 0.0 0.0 0.00 0.04 0.00 83 1021.6
20260905002536 54 0 0.0 0.0 0.00 0.04 0.00 83 1021.6
20260905002036 55 0 0.0 0.0 0.00 0.04 0.00 83 1021.6
20260905001605 55 0 0.0 0.0 0.00 0.04 0.00 82 1021.6
20260905001042 55 0 0.0 0.0 0.00 0.04 0.00 81 1021.6
20260905000537 55 0 0.0 0.0 0.00 0.04 0.00 81 1021.6
20260905000059 55 0 0.0 0.0 0.00 0.04 0.00 81 1021.5
20260904235536 56 0 0.0 3.0 0.00 0.05 0.00 81 1021.5
20260904235036 56 0 0.0 3.0 0.00 0.05 0.00 81 1021.4
20260904234556 56 0 0.0 3.0 0.00 0.05 0.00 81 1021.4
20260904234036 56 0 0.0 3.0 0.00 0.05 0.00 81 1021.3
20260904233536 56 0 0.0 3.0 0.00 0.05 0.00 81 1021.3
20260904233102 56 232 0.0 3.0 0.00 0.05 0.00 81 1021.3
20260904232536 56 0 0.0 3.0 0.00 0.05 0.00 81 1021.3
20260904232041 56 0 0.0 4.0 0.00 0.05 0.00 81 1021.3
20260904231605 56 240 0.0 4.0 0.00 0.05 0.00 81 1021.2
20260904231039 56 0 0.0 3.0 0.00 0.05 0.00 81 1021.1
20260904230537 57 0 1.0 3.0 0.00 0.05 0.00 80 1021.1
20260904230101 57 240 1.0 3.0 0.00 0.05 0.00 80 1021.1
20260904225537 57 0 0.0 3.0 0.00 0.05 0.05 80 1021.2
20260904225037 57 0 0.0 4.0 0.00 0.05 0.05 80 1021.1
20260904224559 57 0 0.0 4.0 0.00 0.05 0.05 80 1021.0
20260904224036 57 267 2.0 4.0 0.00 0.05 0.05 80 1021.0
20260904223537 57 225 1.0 4.0 0.00 0.05 0.05 80 1020.9
20260904223054 57 254 0.0 3.0 0.00 0.05 0.05 79 1020.8
20260904222536 57 254 1.0 3.0 0.00 0.05 0.05 79 1020.7
20260904222037 57 0 1.0 3.0 0.00 0.05 0.05 79 1020.8
20260904221607 58 220 0.0 2.0 0.00 0.05 0.05 78 1020.8
20260904221037 58 0 0.0 3.0 0.00 0.05 0.05 78 1020.7
20260904220537 58 0 0.0 3.0 0.00 0.05 0.05 78 1020.7
20260904220104 58 220 1.0 6.0 0.00 0.05 0.05 78 1020.7
20260904215537 58 220 1.0 6.0 0.00 0.05 0.05 78 1020.7
20260904215037 58 242 2.0 6.0 0.00 0.05 0.05 78 1020.7
20260904214602 58 232 2.0 6.0 0.00 0.05 0.05 77 1020.7
20260904214036 58 254 2.0 6.0 0.00 0.05 0.05 77 1020.6
20260904213536 59 248 2.0 4.0 0.00 0.05 0.05 77 1020.6
20260904213058 59 248 2.0 4.0 0.00 0.05 0.05 77 1020.7
20260904212535 59 246 2.0 4.0 0.00 0.05 0.05 76 1020.6
20260904212036 59 273 2.0 4.0 0.00 0.05 0.05 76 1020.6
20260904211604 59 258 1.0 4.0 0.00 0.05 0.05 76 1020.5
20260904211036 59 0 2.0 4.0 0.00 0.05 0.05 76 1020.4
20260904210537 60 258 1.0 3.0 0.00 0.05 0.05 76 1020.3
20260904210107 60 238 1.0 4.0 0.00 0.05 0.05 76 1020.4